QPF
0.02 0.03 0.02 0.03 0.03 0.03 0.04 0.05 0.04 0.04 0.07 0.04 0.04 0.04 0.03 0.03 0.01 0.02 0.04 0.04 0.04 0.05 0.05 0.04 0.04 0.04 0.05 0.06 0.05 0.06 0.06 0.05 0.04 0.05 0.05 0.04 0.01 0.02 0.02 0.02 0.01 0.02 0.01
0.01 0.02 0.02 0.02 0.02 0.02 0.04 0.06 0.07 0.04 0.06 0.07 0.05 0.04 0.04 0.03 0.02 0.03 0.03 0.03 0.03 0.05 0.06 0.06 0.05 0.05 0.06 0.06 0.06 0.07 0.07 0.06 0.05 0.06 0.06 0.06 0.04 0.02 0.01 0.01 0.01 0.02 0.02
0.01 0.01 0.01 0.01 0.03 0.02 0.03 0.06 0.07 0.06 0.09 0.13 0.09 0.06 0.06 0.05 0.05 0.04 0.04 0.03 0.03 0.04 0.06 0.07 0.06 0.06 0.06 0.07 0.08 0.07 0.09 0.07 0.05 0.05 0.06 0.06 0.04 0.03 0.01 0.00 0.00 0.01 0.03
0.01 0.01 0.01 0.01 0.03 0.02 0.04 0.08 0.07 0.07 0.11 0.16 0.13 0.09 0.06 0.04 0.03 0.04 0.04 0.04 0.04 0.04 0.04 0.06 0.06 0.06 0.05 0.08 0.07 0.05 0.07 0.07 0.05 0.04 0.04 0.03 0.02 0.03 0.03 0.02 0.00 0.01 0.02
0.00 0.01 0.01 0.02 0.02 0.03 0.04 0.08 0.11 0.13 0.16 0.20 0.15 0.13 0.10 0.07 0.06 0.07 0.08 0.06 0.05 0.05 0.04 0.04 0.05 0.05 0.05 0.06 0.07 0.07 0.06 0.04 0.04 0.04 0.04 0.03 0.03 0.02 0.03 0.04 0.02 0.01 0.01
0.00 0.01 0.01 0.02 0.02 0.04 0.05 0.06 0.09 0.15 0.19 0.21 0.16 0.12 0.11 0.11 0.12 0.13 0.11 0.10 0.08 0.07 0.04 0.03 0.04 0.04 0.03 0.04 0.07 0.07 0.06 0.06 0.06 0.05 0.04 0.03 0.03 0.03 0.03 0.03 0.03 0.02 0.01
0.01 0.01 0.01 0.01 0.02 0.03 0.05 0.05 0.05 0.08 0.13 0.15 0.15 0.13 0.12 0.13 0.13 0.15 0.16 0.14 0.12 0.10 0.06 0.05 0.05 0.05 0.04 0.04 0.06 0.06 0.06 0.06 0.07 0.06 0.05 0.04 0.04 0.03 0.02 0.03 0.02 0.03 0.01
0.01 0.01 0.01 0.01 0.01 0.02 0.03 0.03 0.04 0.05 0.10 0.11 0.11 0.12 0.14 0.15 0.15 0.17 0.18 0.15 0.12 0.10 0.09 0.08 0.07 0.06 0.05 0.03 0.05 0.05 0.05 0.04 0.06 0.05 0.05 0.04 0.03 0.03 0.02 0.02 0.03 0.03 0.02
0.00 0.00 0.00 0.01 0.01 0.02 0.03 0.02 0.03 0.06 0.10 0.10 0.10 0.11 0.14 0.16 0.15 0.15 0.16 0.13 0.12 0.11 0.12 0.11 0.09 0.06 0.06 0.05 0.05 0.04 0.04 0.05 0.06 0.05 0.05 0.04 0.03 0.03 0.02 0.02 0.03 0.04 0.03
0.00 0.00 0.00 0.01 0.01 0.03 0.04 0.03 0.03 0.06 0.09 0.10 0.11 0.10 0.14 0.17 0.16 0.17 0.18 0.15 0.11 0.08 0.10 0.12 0.11 0.09 0.08 0.08 0.06 0.03 0.04 0.05 0.05 0.06 0.05 0.05 0.04 0.03 0.03 0.02 0.02 0.03 0.03
0.00 0.00 0.00 0.01 0.02 0.03 0.03 0.04 0.03 0.04 0.05 0.08 0.10 0.09 0.10 0.13 0.13 0.13 0.14 0.14 0.12 0.11 0.09 0.11 0.12 0.11 0.09 0.07 0.06 0.05 0.05 0.05 0.05 0.05 0.05 0.05 0.04 0.03 0.03 0.02 0.02 0.02 0.03
0.00 0.01 0.01 0.01 0.01 0.02 0.03 0.03 0.03 0.04 0.04 0.04 0.06 0.09 0.09 0.11 0.12 0.10 0.11 0.11 0.12 0.13 0.13 0.13 0.13 0.10 0.09 0.08 0.07 0.07 0.06 0.06 0.06 0.06 0.05 0.04 0.03 0.03 0.02 0.02 0.02 0.02 0.03
0.01 0.01 0.01 0.01 0.01 0.02 0.02 0.03 0.03 0.04 0.05 0.06 0.07 0.09 0.12 0.11 0.10 0.09 0.11 0.13 0.12 0.13 0.13 0.13 0.14 0.14 0.12 0.10 0.08 0.08 0.06 0.05 0.04 0.05 0.06 0.05 0.04 0.04 0.03 0.03 0.02 0.02 0.02
0.00 0.00 0.01 0.01 0.01 0.01 0.01 0.02 0.02 0.04 0.06 0.06 0.07 0.08 0.10 0.10 0.09 0.09 0.10 0.11 0.13 0.13 0.12 0.12 0.12 0.11 0.10 0.10 0.09 0.09 0.08 0.06 0.04 0.04 0.04 0.04 0.05 0.06 0.07 0.05 0.04 0.03 0.03
0.00 0.03 0.06 0.04 0.02 0.01 0.02 0.02 0.03 0.04 0.05 0.06 0.06 0.08 0.09 0.09 0.09 0.09 0.11 0.11 0.13 0.14 0.15 0.14 0.13 0.12 0.11 0.09 0.10 0.10 0.09 0.08 0.07 0.05 0.05 0.05 0.06 0.07 0.08 0.06 0.06 0.06 0.05
0.00 0.03 0.09 0.11 0.07 0.03 0.03 0.02 0.03 0.04 0.05 0.06 0.06 0.09 0.09 0.10 0.10 0.10 0.13 0.14 0.16 0.17 0.17 0.15 0.14 0.15 0.14 0.12 0.11 0.11 0.13 0.13 0.12 0.10 0.09 0.07 0.06 0.06 0.06 0.05 0.05 0.05 0.07
0.00 0.01 0.01 0.04 0.06 0.04 0.02 0.02 0.04 0.03 0.02 0.03 0.04 0.06 0.08 0.08 0.08 0.09 0.11 0.14 0.19 0.22 0.19 0.18 0.16 0.16 0.17 0.16 0.13 0.13 0.13 0.14 0.15 0.15 0.13 0.11 0.09 0.09 0.07 0.07 0.05 0.04 0.04
0.01 0.01 0.00 0.01 0.02 0.02 0.02 0.01 0.02 0.03 0.03 0.03 0.04 0.04 0.06 0.07 0.07 0.08 0.10 0.14 0.18 0.21 0.21 0.19 0.17 0.15 0.16 0.14 0.12 0.11 0.11 0.11 0.12 0.13 0.13 0.13 0.12 0.11 0.11 0.10 0.09 0.07 0.06
0.01 0.01 0.01 0.01 0.01 0.02 0.02 0.02 0.02 0.03 0.03 0.03 0.03 0.03 0.04 0.06 0.08 0.08 0.09 0.10 0.13 0.18 0.19 0.18 0.18 0.16 0.15 0.15 0.13 0.12 0.14 0.17 0.19 0.19 0.17 0.16 0.14 0.15 0.12 0.10 0.08 0.08 0.07
0.02 0.02 0.01 0.02 0.02 0.03 0.03 0.02 0.02 0.02 0.03 0.03 0.02 0.03 0.05 0.05 0.05 0.07 0.08 0.08 0.08 0.11 0.14 0.15 0.14 0.14 0.15 0.17 0.16 0.15 0.14 0.15 0.16 0.16 0.15 0.16 0.15 0.14 0.11 0.08 0.08 0.07 0.07
0.02 0.02 0.01 0.02 0.04 0.05 0.04 0.02 0.03 0.03 0.03 0.03 0.03 0.04 0.07 0.07 0.06 0.06 0.07 0.07 0.07 0.08 0.09 0.12 0.14 0.12 0.12 0.14 0.15 0.15 0.15 0.15 0.15 0.14 0.13 0.14 0.16 0.12 0.10 0.08 0.08 0.11 0.11
0.02 0.02 0.02 0.03 0.08 0.06 0.03 0.03 0.03 0.03 0.04 0.04 0.04 0.04 0.06 0.06 0.05 0.05 0.05 0.06 0.06 0.07 0.08 0.10 0.12 0.13 0.13 0.13 0.13 0.13 0.14 0.14 0.11 0.11 0.10 0.10 0.11 0.10 0.10 0.10 0.12 0.13 0.11
0.02 0.03 0.03 0.07 0.09 0.06 0.03 0.02 0.02 0.03 0.04 0.06 0.06 0.05 0.05 0.04 0.04 0.04 0.04 0.05 0.07 0.09 0.09 0.10 0.12 0.13 0.12 0.11 0.11 0.10 0.10 0.10 0.10 0.11 0.12 0.12 0.11 0.09 0.08 0.10 0.10 0.09 0.08
0.01 0.02 0.02 0.04 0.05 0.05 0.04 0.03 0.03 0.03 0.04 0.05 0.04 0.04 0.05 0.05 0.04 0.06 0.07 0.06 0.07 0.09 0.09 0.08 0.09 0.09 0.09 0.08 0.08 0.07 0.08 0.09 0.10 0.11 0.11 0.09 0.07 0.05 0.05 0.06 0.06 0.06 0.08
0.02 0.02 0.02 0.02 0.03 0.03 0.03 0.03 0.02 0.02 0.02 0.02 0.03 0.03 0.04 0.05 0.04 0.04 0.05 0.06 0.07 0.08 0.09 0.08 0.07 0.06 0.06 0.06 0.06 0.06 0.06 0.06 0.06 0.06 0.05 0.04 0.05 0.05 0.04 0.04 0.05 0.05 0.06
0.02 0.02 0.01 0.01 0.01 0.03 0.03 0.03 0.02 0.03 0.03 0.03 0.04 0.04 0.04 0.05 0.05 0.03 0.02 0.04 0.04 0.05 0.06 0.06 0.05 0.05 0.05 0.05 0.04 0.03 0.04 0.04 0.04 0.04 0.05 0.05 0.04 0.03 0.02 0.02 0.03 0.03 0.04
MSLP
1007.94 1008.21 1008.54 1008.93 1009.37 1009.86 1010.39 1010.93 1011.47 1011.98 1012.45 1012.85 1013.18 1013.46 1013.68 1013.89 1014.09 1014.32 1014.59 1014.90 1015.26 1015.64 1016.04 1016.45 1016.85 1017.25 1017.63 1018.01 1018.38 1018.74 1019.08 1019.40 1019.68 1019.90 1020.06 1020.16 1020.19 1020.17 1020.11 1020.04 1019.98 1019.95 1019.97
1007.98 1008.19 1008.45 1008.77 1009.14 1009.57 1010.04 1010.55 1011.07 1011.59 1012.07 1012.51 1012.88 1013.19 1013.44 1013.66 1013.86 1014.08 1014.33 1014.62 1014.95 1015.33 1015.73 1016.15 1016.57 1017.00 1017.41 1017.81 1018.21 1018.59 1018.94 1019.27 1019.56 1019.80 1019.98 1020.09 1020.13 1020.11 1020.05 1019.96 1019.87 1019.80 1019.77
1008.08 1008.24 1008.46 1008.73 1009.05 1009.41 1009.83 1010.28 1010.75 1011.23 1011.69 1012.11 1012.49 1012.80 1013.07 1013.29 1013.50 1013.72 1013.97 1014.26 1014.60 1014.98 1015.40 1015.84 1016.29 1016.74 1017.18 1017.60 1018.00 1018.38 1018.73 1019.06 1019.34 1019.58 1019.77 1019.89 1019.95 1019.96 1019.91 1019.82 1019.73 1019.64 1019.57
1008.20 1008.36 1008.56 1008.81 1009.08 1009.39 1009.73 1010.10 1010.49 1010.89 1011.28 1011.65 1011.98 1012.28 1012.54 1012.77 1013.00 1013.24 1013.51 1013.83 1014.20 1014.61 1015.06 1015.53 1016.01 1016.47 1016.92 1017.35 1017.74 1018.11 1018.44 1018.75 1019.02 1019.25 1019.44 1019.57 1019.66 1019.69 1019.67 1019.61 1019.52 1019.42 1019.34
1008.32 1008.50 1008.72 1008.96 1009.21 1009.46 1009.72 1009.99 1010.26 1010.55 1010.83 1011.10 1011.37 1011.62 1011.86 1012.11 1012.36 1012.64 1012.96 1013.33 1013.74 1014.20 1014.69 1015.20 1015.70 1016.19 1016.64 1017.06 1017.44 1017.78 1018.09 1018.36 1018.61 1018.83 1019.01 1019.16 1019.27 1019.33 1019.34 1019.31 1019.25 1019.16 1019.06
1008.43 1008.66 1008.92 1009.17 1009.40 1009.60 1009.77 1009.91 1010.05 1010.19 1010.33 1010.49 1010.66 1010.86 1011.07 1011.32 1011.61 1011.95 1012.33 1012.76 1013.24 1013.76 1014.30 1014.84 1015.36 1015.86 1016.32 1016.72 1017.08 1017.40 1017.67 1017.92 1018.14 1018.34 1018.52 1018.68 1018.81 1018.90 1018.96 1018.96 1018.93 1018.86 1018.76
1008.55 1008.83 1009.13 1009.40 1009.61 1009.75 1009.83 1009.85 1009.84 1009.82 1009.82 1009.84 1009.91 1010.04 1010.23 1010.49 1010.82 1011.21 1011.67 1012.17 1012.72 1013.29 1013.87 1014.44 1014.98 1015.48 1015.93 1016.32 1016.66 1016.96 1017.21 1017.44 1017.64 1017.83 1018.02 1018.18 1018.33 1018.46 1018.55 1018.59 1018.59 1018.55 1018.46
1008.68 1009.02 1009.35 1009.63 1009.82 1009.90 1009.89 1009.79 1009.64 1009.47 1009.31 1009.22 1009.19 1009.26 1009.42 1009.69 1010.06 1010.50 1011.02 1011.59 1012.19 1012.81 1013.42 1014.00 1014.55 1015.04 1015.48 1015.87 1016.19 1016.48 1016.72 1016.94 1017.14 1017.33 1017.52 1017.70 1017.88 1018.03 1018.15 1018.24 1018.27 1018.26 1018.19
1008.85 1009.23 1009.58 1009.86 1010.02 1010.05 1009.95 1009.74 1009.46 1009.16 1008.89 1008.68 1008.58 1008.59 1008.73 1009.01 1009.40 1009.89 1010.45 1011.06 1011.70 1012.33 1012.95 1013.54 1014.08 1014.56 1014.99 1015.37 1015.69 1015.97 1016.22 1016.45 1016.66 1016.87 1017.07 1017.27 1017.46 1017.64 1017.79 1017.91 1017.98 1018.00 1017.96
1009.09 1009.48 1009.84 1010.09 1010.22 1010.19 1010.01 1009.72 1009.34 1008.95 1008.59 1008.31 1008.14 1008.11 1008.24 1008.51 1008.91 1009.42 1010.00 1010.62 1011.26 1011.90 1012.50 1013.07 1013.59 1014.06 1014.48 1014.85 1015.18 1015.47 1015.74 1015.99 1016.22 1016.44 1016.66 1016.87 1017.08 1017.28 1017.46 1017.60 1017.71 1017.76 1017.76
1009.41 1009.80 1010.13 1010.34 1010.41 1010.33 1010.10 1009.75 1009.32 1008.87 1008.46 1008.14 1007.94 1007.88 1007.99 1008.25 1008.64 1009.13 1009.70 1010.30 1010.92 1011.52 1012.10 1012.63 1013.12 1013.57 1013.98 1014.35 1014.69 1015.01 1015.29 1015.56 1015.81 1016.05 1016.28 1016.51 1016.72 1016.92 1017.11 1017.28 1017.41 1017.49 1017.53
1009.84 1010.19 1010.46 1010.62 1010.63 1010.50 1010.23 1009.85 1009.40 1008.94 1008.52 1008.18 1007.97 1007.90 1007.98 1008.21 1008.57 1009.03 1009.55 1010.11 1010.67 1011.23 1011.76 1012.26 1012.72 1013.15 1013.55 1013.92 1014.27 1014.59 1014.90 1015.18 1015.45 1015.69 1015.92 1016.13 1016.34 1016.53 1016.71 1016.88 1017.02 1017.13 1017.20
1010.37 1010.66 1010.85 1010.93 1010.88 1010.71 1010.41 1010.03 1009.59 1009.15 1008.75 1008.43 1008.21 1008.13 1008.19 1008.38 1008.68 1009.08 1009.54 1010.03 1010.54 1011.04 1011.52 1011.98 1012.42 1012.83 1013.22 1013.58 1013.93 1014.26 1014.57 1014.85 1015.11 1015.34 1015.54 1015.73 1015.90 1016.06 1016.22 1016.37 1016.50 1016.62 1016.71
1011.00 1011.20 1011.30 1011.30 1011.18 1010.96 1010.66 1010.29 1009.89 1009.49 1009.13 1008.83 1008.63 1008.54 1008.56 1008.70 1008.94 1009.26 1009.64 1010.06 1010.51 1010.96 1011.40 1011.83 1012.24 1012.63 1013.01 1013.37 1013.71 1014.03 1014.32 1014.57 1014.80 1014.99 1015.15 1015.29 1015.41 1015.52 1015.63 1015.75 1015.86 1015.97 1016.06
1011.69 1011.79 1011.80 1011.70 1011.53 1011.28 1010.97 1010.63 1010.28 1009.93 1009.62 1009.36 1009.17 1009.06 1009.04 1009.12 1009.29 1009.54 1009.85 1010.20 1010.59 1011.00 1011.41 1011.81 1012.21 1012.59 1012.96 1013.30 1013.61 1013.90 1014.15 1014.36 1014.54 1014.67 1014.77 1014.84 1014.90 1014.95 1015.00 1015.06 1015.14 1015.22 1015.31
1012.40 1012.41 1012.32 1012.15 1011.92 1011.65 1011.35 1011.05 1010.75 1010.46 1010.20 1009.97 1009.79 1009.66 1009.61 1009.63 1009.73 1009.90 1010.15 1010.45 1010.79 1011.17 1011.56 1011.96 1012.35 1012.72 1013.07 1013.38 1013.66 1013.90 1014.10 1014.24 1014.35 1014.42 1014.45 1014.45 1014.44 1014.42 1014.41 1014.42 1014.44 1014.48 1014.54
1013.08 1013.01 1012.85 1012.61 1012.35 1012.07 1011.79 1011.53 1011.29 1011.05 1010.84 1010.64 1010.47 1010.33 1010.24 1010.21 1010.25 1010.37 1010.56 1010.82 1011.14 1011.50 1011.89 1012.29 1012.67 1013.03 1013.35 1013.63 1013.86 1014.04 1014.17 1014.25 1014.28 1014.28 1014.24 1014.19 1014.11 1014.04 1013.97 1013.92 1013.90 1013.90 1013.92
1013.68 1013.56 1013.34 1013.07 1012.79 1012.53 1012.29 1012.07 1011.89 1011.71 1011.54 1011.38 1011.22 1011.07 1010.95 1010.88 1010.88 1010.95 1011.11 1011.35 1011.65 1012.01 1012.40 1012.80 1013.18 1013.52 1013.81 1014.05 1014.22 1014.34 1014.39 1014.40 1014.37 1014.31 1014.22 1014.12 1014.01 1013.89 1013.79 1013.70 1013.63 1013.59 1013.57
1014.16 1014.01 1013.77 1013.51 1013.24 1013.01 1012.82 1012.67 1012.54 1012.43 1012.31 1012.17 1012.03 1011.89 1011.76 1011.67 1011.64 1011.69 1011.83 1012.06 1012.36 1012.72 1013.11 1013.50 1013.86 1014.18 1014.43 1014.62 1014.73 1014.78 1014.77 1014.72 1014.64 1014.53 1014.41 1014.29 1014.16 1014.03 1013.91 1013.80 1013.71 1013.63 1013.58
1014.49 1014.35 1014.13 1013.90 1013.68 1013.51 1013.38 1013.30 1013.24 1013.19 1013.13 1013.04 1012.93 1012.80 1012.67 1012.58 1012.55 1012.59 1012.72 1012.94 1013.24 1013.60 1013.98 1014.36 1014.70 1014.98 1015.19 1015.32 1015.37 1015.36 1015.29 1015.19 1015.07 1014.94 1014.81 1014.69 1014.57 1014.45 1014.33 1014.22 1014.12 1014.02 1013.94
1014.70 1014.59 1014.42 1014.25 1014.10 1014.01 1013.96 1013.96 1013.98 1014.00 1014.00 1013.96 1013.89 1013.79 1013.69 1013.61 1013.58 1013.63 1013.76 1013.98 1014.28 1014.62 1014.99 1015.34 1015.65 1015.89 1016.04 1016.11 1016.10 1016.03 1015.92 1015.78 1015.63 1015.49 1015.37 1015.26 1015.16 1015.07 1014.98 1014.88 1014.78 1014.68 1014.58
1014.82 1014.76 1014.67 1014.58 1014.52 1014.51 1014.56 1014.64 1014.74 1014.83 1014.90 1014.91 1014.89 1014.83 1014.76 1014.71 1014.70 1014.76 1014.89 1015.11 1015.40 1015.73 1016.07 1016.39 1016.65 1016.84 1016.94 1016.95 1016.89 1016.76 1016.60 1016.43 1016.27 1016.12 1016.01 1015.92 1015.84 1015.78 1015.72 1015.64 1015.56 1015.46 1015.36
1014.92 1014.93 1014.92 1014.92 1014.95 1015.04 1015.17 1015.33 1015.51 1015.67 1015.79 1015.86 1015.89 1015.87 1015.84 1015.82 1015.83 1015.91 1016.05 1016.26 1016.54 1016.84 1017.15 1017.43 1017.65 1017.79 1017.83 1017.79 1017.68 1017.51 1017.31 1017.10 1016.92 1016.76 1016.65 1016.57 1016.52 1016.48 1016.44 1016.39 1016.32 1016.23 1016.12
1015.09 1015.16 1015.23 1015.31 1015.43 1015.60 1015.80 1016.03 1016.27 1016.47 1016.65 1016.76 1016.83 1016.85 1016.86 1016.87 1016.90 1016.99 1017.14 1017.35 1017.61 1017.89 1018.17 1018.41 1018.58 1018.68 1018.68 1018.59 1018.43 1018.22 1017.98 1017.75 1017.53 1017.36 1017.23 1017.15 1017.10 1017.07 1017.04 1017.00 1016.94 1016.86 1016.75
1015.37 1015.51 1015.65 1015.80 1015.98 1016.21 1016.46 1016.73 1017.00 1017.23 1017.43 1017.58 1017.67 1017.72 1017.75 1017.79 1017.85 1017.95 1018.10 1018.31 1018.56 1018.82 1019.07 1019.28 1019.42 1019.48 1019.45 1019.33 1019.13 1018.89 1018.61 1018.34 1018.10 1017.89 1017.74 1017.63 1017.56 1017.52 1017.49 1017.45 1017.39 1017.31 1017.20
1015.83 1016.01 1016.20 1016.40 1016.62 1016.87 1017.15 1017.42 1017.69 1017.93 1018.12 1018.27 1018.37 1018.44 1018.49 1018.54 1018.62 1018.73 1018.90 1019.10 1019.34 1019.59 1019.83 1020.02 1020.14 1020.18 1020.13 1019.99 1019.78 1019.51 1019.21 1018.90 1018.62 1018.38 1018.18 1018.04 1017.94 1017.87 1017.81 1017.76 1017.69 1017.60 1017.49
Thickness
5808 5803 5798 5794 5788 5783 5778 5773 5768 5764 5759 5756 5752 5749 5748 5749 5749 5748 5746 5744 5743 5741 5740 5742 5739 5739 5739 5738 5737 5735 5733 5733 5735 5733 5732 5734 5736 5735 5734 5734 5735 5734 5732
5804 5800 5796 5793 5788 5782 5778 5773 5767 5763 5760 5758 5754 5752 5750 5750 5750 5748 5745 5743 5742 5740 5740 5740 5739 5738 5738 5736 5736 5734 5733 5733 5734 5731 5728 5726 5729 5732 5737 5736 5734 5735 5734
5804 5800 5795 5792 5788 5783 5779 5775 5769 5765 5760 5757 5753 5750 5747 5746 5747 5746 5745 5743 5742 5740 5739 5739 5739 5738 5739 5737 5735 5734 5731 5730 5732 5733 5730 5725 5724 5731 5736 5736 5736 5735 5734
5807 5802 5796 5792 5789 5786 5781 5777 5771 5766 5761 5757 5753 5749 5747 5746 5747 5746 5746 5744 5742 5740 5739 5738 5738 5737 5739 5737 5736 5736 5734 5730 5729 5731 5731 5732 5733 5727 5728 5733 5737 5736 5734
5808 5803 5798 5795 5792 5788 5783 5777 5771 5766 5762 5757 5754 5749 5748 5749 5749 5747 5745 5743 5742 5741 5740 5739 5738 5737 5738 5737 5736 5735 5733 5733 5732 5731 5731 5730 5730 5730 5727 5726 5731 5735 5737
5806 5802 5800 5795 5790 5787 5782 5777 5770 5765 5762 5758 5755 5751 5749 5748 5747 5745 5744 5742 5743 5742 5740 5739 5738 5737 5738 5737 5735 5734 5732 5732 5732 5732 5732 5730 5729 5729 5729 5726 5727 5730 5736
5803 5799 5795 5791 5787 5783 5780 5776 5770 5764 5761 5757 5755 5753 5750 5748 5745 5744 5743 5742 5742 5741 5741 5740 5738 5737 5736 5736 5735 5733 5733 5731 5730 5729 5730 5732 5732 5733 5731 5729 5729 5729 5734
5799 5795 5793 5789 5786 5783 5779 5774 5769 5765 5762 5758 5754 5753 5751 5749 5748 5746 5746 5743 5742 5743 5741 5739 5737 5736 5736 5735 5734 5734 5732 5731 5730 5730 5729 5729 5731 5732 5731 5729 5727 5724 5728
5794 5792 5790 5788 5785 5781 5777 5774 5769 5765 5762 5759 5755 5752 5751 5750 5749 5747 5745 5743 5742 5742 5740 5738 5736 5735 5734 5734 5733 5733 5731 5730 5729 5730 5728 5728 5731 5730 5731 5730 5729 5724 5720
5789 5787 5786 5784 5782 5779 5776 5774 5769 5764 5762 5759 5755 5753 5751 5749 5748 5745 5743 5742 5741 5740 5738 5736 5735 5734 5733 5733 5732 5731 5731 5729 5728 5728 5727 5726 5728 5728 5728 5728 5728 5726 5722
5783 5782 5780 5780 5778 5776 5773 5769 5766 5762 5759 5757 5754 5752 5750 5748 5747 5744 5743 5742 5740 5738 5736 5734 5734 5733 5732 5732 5731 5731 5730 5727 5727 5726 5725 5723 5724 5725 5725 5726 5725 5724 5722
5780 5779 5776 5775 5773 5770 5768 5765 5763 5760 5757 5755 5752 5750 5749 5747 5745 5743 5742 5741 5739 5737 5736 5734 5733 5732 5731 5731 5730 5729 5728 5726 5724 5724 5723 5722 5723 5721 5721 5721 5721 5721 5720
5774 5773 5771 5769 5768 5766 5764 5762 5759 5757 5755 5753 5750 5748 5747 5744 5743 5741 5740 5739 5738 5736 5735 5733 5731 5731 5730 5729 5729 5728 5727 5726 5724 5723 5721 5720 5719 5717 5717 5716 5717 5717 5717
5767 5765 5763 5762 5761 5760 5759 5758 5756 5755 5753 5750 5747 5745 5744 5743 5741 5739 5737 5737 5736 5735 5734 5732 5730 5729 5729 5728 5728 5726 5725 5724 5722 5721 5720 5719 5717 5716 5714 5713 5712 5711 5711
5760 5758 5757 5756 5755 5755 5754 5754 5752 5751 5750 5747 5744 5743 5743 5742 5739 5737 5735 5734 5734 5734 5732 5729 5728 5727 5727 5727 5726 5724 5723 5721 5719 5718 5717 5716 5714 5713 5711 5711 5709 5707 5705
5755 5754 5753 5751 5750 5750 5750 5750 5748 5747 5746 5744 5742 5741 5740 5738 5737 5735 5733 5731 5730 5730 5728 5726 5724 5723 5724 5722 5720 5719 5719 5717 5715 5713 5712 5711 5709 5706 5704 5702 5701 5699 5698
5750 5749 5748 5747 5747 5747 5747 5745 5745 5745 5743 5740 5739 5738 5737 5735 5733 5732 5730 5727 5726 5725 5723 5721 5720 5719 5717 5715 5713 5712 5713 5712 5710 5708 5706 5706 5706 5703 5701 5697 5693 5692 5690
5745 5744 5744 5743 5744 5744 5743 5743 5743 5741 5739 5736 5735 5735 5734 5732 5730 5728 5725 5723 5721 5719 5717 5715 5714 5712 5711 5708 5706 5706 5706 5705 5704 5702 5700 5698 5697 5696 5693 5692 5690 5688 5685
5739 5739 5740 5739 5739 5739 5738 5738 5737 5735 5733 5732 5731 5731 5731 5728 5726 5723 5720 5718 5715 5712 5710 5709 5707 5705 5702 5700 5699 5699 5699 5698 5696 5694 5692 5691 5688 5685 5684 5683 5682 5680 5678
5734 5734 5734 5734 5732 5732 5733 5731 5730 5728 5727 5726 5726 5726 5726 5724 5721 5719 5716 5713 5710 5707 5704 5701 5699 5697 5695 5691 5692 5692 5693 5691 5688 5685 5682 5678 5677 5675 5674 5674 5673 5669 5668
5727 5727 5727 5725 5725 5726 5726 5724 5722 5720 5720 5721 5721 5720 5719 5718 5715 5713 5710 5707 5704 5700 5696 5693 5690 5688 5686 5683 5683 5684 5685 5683 5680 5675 5671 5667 5664 5663 5662 5662 5660 5657 5656
5719 5719 5718 5717 5717 5718 5718 5715 5713 5713 5713 5713 5712 5711 5710 5710 5708 5705 5702 5699 5696 5692 5688 5684 5680 5678 5676 5674 5672 5672 5672 5672 5670 5665 5661 5656 5654 5652 5650 5648 5646 5645 5644
5710 5711 5709 5707 5708 5709 5709 5706 5705 5705 5705 5703 5700 5699 5699 5697 5696 5694 5692 5690 5687 5684 5679 5676 5673 5670 5667 5664 5662 5660 5660 5659 5658 5653 5648 5645 5643 5641 5639 5636 5635 5635 5635
5701 5702 5701 5699 5697 5698 5698 5697 5696 5696 5695 5692 5689 5688 5686 5684 5683 5682 5681 5679 5677 5674 5671 5668 5665 5662 5658 5656 5655 5653 5650 5647 5646 5643 5638 5635 5633 5631 5629 5627 5626 5624 5622
5691 5692 5691 5688 5687 5687 5687 5687 5686 5686 5684 5682 5679 5677 5675 5673 5669 5665 5662 5662 5657 5659 5660 5659 5656 5652 5646 5639 5638 5643 5642 5640 5637 5635 5633 5631 5629 5625 5622 5619 5616 5614 5612
5681 5681 5680 5678 5677 5677 5676 5676 5676 5676 5674 5671 5669 5668 5666 5663 5660 5655 5647 5640 5641 5640 5640 5639 5639 5633 5629 5627 5627 5627 5626 5625 5624 5626 5624 5620 5617 5614 5611 5608 5605 5603 5599